Location: Starlight Observatory
(38.4029°N, 85.8936°W)
Time: 18:50:07
(UTC-04:00)

Iridium 62 - Visible Passes

Search period start: 25 July 2017 00:00
Search period end: 04 August 2017 00:00
Orbit: 776 x 779 km, 86.4° (Epoch: 25 July)

Date Brightness Start Highest point End Pass type
(mag) Time Alt. Az. Time Alt. Az. Time Alt. Az.
25 Jul 9.0 05:39:24 10° NE 05:41:35 12° ENE 05:43:46 10° E visible
27 Jul 7.8 06:10:57 10° NNE 06:15:40 34° E 06:20:22 10° SE visible
28 Jul 8.6 05:38:19 10° NNE 05:41:54 18° ENE 05:45:28 10° ESE visible
30 Jul 7.0 06:10:47 10° N 06:15:52 49° E 06:20:53 10° SSE visible
31 Jul 8.1 05:37:47 10° NNE 05:42:10 27° E 05:46:31 10° SE visible
01 Aug 8.7 05:05:33 10° NE 05:08:21 14° ENE 05:11:08 10° ESE visible
02 Aug 6.2 06:10:46 10° N 06:16:00 73° E 06:21:12 10° S visible
03 Aug 7.4 05:37:31 10° NNE 05:42:23 38° E 05:47:13 10° SSE visible
